Regional Weather Roundup
Issued by NWS

Home | Current Version | Previous Version | Graphics & Text | Print | Product List | Glossary On
Versions: 1 2 3 4 5 6 7 8 9 10 11 12 13 14 15 16 17 18 19 20 21 22 23 24 25 26 27 28 29 30 31 32 33 34 35 36 37 38 39 40 41 42 43 44 45 46 47 48 49 50
000
ASUS44 KMEG 282010
RWRTN
TENNESSEE HOURLY STATE WEATHER ROUNDUP
NATIONAL WEATHER SERVICE MEMPHIS TN
300 PM CDT FRI APR 28 2017

TNZ002-004-019-021-049-052-054-088>092-282100-
WEST TENNESSEE

CITY           SKY/WX    TMP DP  RH WIND       PRES   REMARKS
MEMPHIS INTL   CLOUDY    83  72  69 SW18G25   29.77S
NWS MEMPHIS      N/A     83 N/A N/A MISG        N/A
JACKSON        CLOUDY    79  71  76 S13       29.81F
DYERSBURG      PTSUNNY   78  70  76 S9G17     29.78F
SOMERVILLE     PTSUNNY   81  72  74 S9G21     29.78F
UNION CITY     CLOUDY    75  68  78 S15G23    29.77F
BOLIVAR        PTSUNNY   81  72  74 S9G17     29.81S
PARIS          CLOUDY    70  66  88 S12       29.82F
HUNTINGDON     PTSUNNY   75  70  83 S8G15     29.80F
LEXINGTON      PTSUNNY   79  70  73 S13G20    29.83F
SAVANNAH       MOSUNNY   82  72  69 S13G20    29.83F
$$

TNZ008-025-027-028-033-062-065-066-282100-
NORTH MIDDLE TENNESSEE

CITY           SKY/WX    TMP DP  RH WIND       PRES   REMARKS
NASHVILLE      LGT RAIN  75  68  78 S15       29.91S
PORTLAND       PTSUNNY   79  66  65 S16       29.88F
CLARKSVILLE    CLOUDY    75  66  73 S10       29.84F
SMYRNA         CLOUDY    78  67  68 S7        29.91F
COOKEVILLE     MOSUNNY   79  64  61 S14G22    29.94F
GALLATIN       PTSUNNY   79  66  65 S13       29.92F
CROSSVILLE     PTSUNNY   74  62  66 S10G20    30.01S
$$

TNZ061-075-076-078-094-096-097-282100-
SOUTH MIDDLE TENNESSEE

CITY           SKY/WX    TMP DP  RH WIND       PRES   REMARKS
TULLAHOMA      MOSUNNY   81  66  61 S9        29.95F
WINCHESTER     PTSUNNY   81  64  57 S10       29.95S
MCMINNVILLE    MOSUNNY   81  66  61 S9        29.94F
COLUMBIA       PTSUNNY   79  79 100 S8        29.88F
SHELBYVILLE    PTSUNNY   82  70  65 S13       29.93S
$$

TNZ017-018-042-046-047-282100-
NORTHEAST TENNESSEE

CITY           SKY/WX    TMP DP  RH WIND       PRES   REMARKS
TRI CITIES     MOSUNNY   84  55  36 N3        29.99F
ELIZABETHTON   SUNNY     84  57  39 CALM      29.98F
$$

TNZ012-013-036-069-073-074-282100-
CENTRAL EAST TENNESSEE

CITY           SKY/WX    TMP DP  RH WIND       PRES   REMARKS
KNOXVILLE      PTSUNNY   83  64  52 W12       29.96F
OAK RIDGE      MOSUNNY   81  63  54 W8        29.98F
DOWNTOWN KNOXV SUNNY     82  64  54 W8        29.96F
GATLINBURG     SUNNY     82  63  51 NW7       29.96S
MORRISTOWN     SUNNY     81  63  54 NW5       29.97F
JACKSBORO      PTSUNNY   79  63  57 SW10      30.00F
$$

TNZ083-085-099-282100-
SOUTHEAST TENNESSEE

CITY           SKY/WX    TMP DP  RH WIND       PRES   REMARKS
CHATTANOOGA    PTSUNNY   82  65  56 S12G20    29.96F
$$

SKY/WX REPORTED AS FAIR MEANS FEW OR NO CLOUDS BELOW
12 THOUSAND FEET.





USA.gov is the U.S. government's official web portal to all federal, state and local government web resources and services.